Temp
9 10 10 9 9 9 9 9 10 9 9 9 9 9 9 9 9 9 9 11 11 12 12 13 13 14 14 14 14 14 16 18 18 19 19 18 19 18 18 20 20 19 18 18 18
9 9 9 9 9 9 9 9 9 9 9 9 9 9 9 9 9 9 10 11 11 12 12 12 12 13 14 14 15 15 17 18 18 19 17 17 17 17 19 19 19 18 19 17 18
9 9 9 9 9 8 9 9 9 8 8 8 9 9 9 9 8 9 10 11 12 11 12 12 12 13 13 14 14 15 17 17 18 17 18 18 17 16 18 19 17 17 17 18 18
8 8 8 8 8 8 8 8 8 8 8 8 8 8 9 9 8 10 10 12 12 11 12 12 12 13 13 13 14 15 16 18 18 17 17 16 16 16 16 18 17 16 17 18 18
9 8 8 8 8 8 8 8 8 8 8 8 8 8 8 8 8 10 10 11 11 10 12 12 12 13 13 14 14 15 16 17 16 16 15 16 15 15 16 16 16 17 18 17 18
8 8 8 8 8 8 8 8 8 8 8 8 8 8 8 7 10 10 10 10 10 10 11 12 12 13 13 14 15 15 17 16 16 15 15 16 16 17 16 16 17 17 17 18 17
8 8 8 8 7 7 8 8 7 7 7 8 8 8 7 8 10 10 10 10 9 10 11 12 12 13 13 13 14 15 15 14 15 14 14 16 17 16 18 17 17 17 17 17 18
8 8 7 7 7 7 7 7 7 8 7 8 8 8 7 10 10 10 10 9 9 10 10 12 12 12 12 13 13 15 14 15 14 15 14 15 17 17 17 16 17 17 17 17 18
7 8 7 7 7 7 7 8 7 7 7 7 8 7 8 10 10 9 9 9 10 10 11 12 11 12 12 12 13 13 14 13 14 16 14 14 15 18 17 16 16 17 17 17 17
7 8 7 6 7 7 7 8 7 7 7 7 7 7 9 9 9 9 9 9 9 9 12 12 10 11 11 12 13 13 13 13 15 15 14 15 15 16 15 16 17 17 17 17 17
7 7 7 6 7 7 7 7 7 6 7 7 7 7 8 8 9 8 9 8 9 9 9 11 9 11 12 13 13 13 14 15 14 15 15 14 15 15 15 14 16 18 16 17 17
7 7 6 6 7 6 7 6 7 7 7 7 7 7 8 7 8 8 9 8 7 9 11 10 10 11 12 13 13 14 13 14 15 15 16 14 15 16 15 15 15 16 16 17 17
7 6 6 7 6 7 7 7 7 7 6 7 7 7 7 7 8 8 9 7 7 8 10 12 10 11 13 13 13 13 13 13 14 14 15 15 15 15 15 15 14 15 16 16 17
6 6 6 6 6 7 7 7 7 7 5 8 8 8 8 7 8 9 9 9 6 8 10 12 11 10 12 13 13 13 13 14 14 14 14 15 15 14 15 15 15 16 17 17 16
6 6 6 6 7 7 8 7 7 7 6 8 8 8 7 8 8 9 9 9 8 8 9 10 11 10 12 13 14 14 13 14 14 13 14 14 15 15 15 15 16 16 17 18 15
6 6 6 6 7 7 8 7 7 4 6 8 8 8 8 8 9 8 9 10 10 10 10 10 11 11 13 12 13 12 13 13 12 14 14 14 15 15 14 16 17 18 18 19 16
6 6 6 7 7 7 7 7 4 6 8 9 8 8 8 8 9 8 9 8 8 10 10 11 11 11 11 13 13 13 13 12 13 13 13 12 13 16 15 15 16 16 17 17 14
7 6 7 7 7 7 7 4 6 9 9 10 9 8 9 8 9 10 9 8 9 9 11 11 11 11 11 12 13 13 13 11 12 12 13 11 12 16 15 14 14 14 15 14 12
7 7 7 7 7 7 6 2 6 4 7 10 10 10 10 10 10 10 9 10 9 8 10 11 11 11 11 11 12 12 11 11 9 8 10 12 12 14 14 14 14 13 12 12 11
7 7 6 7 7 7 4 7 5 7 9 10 10 10 10 11 11 10 10 11 9 9 10 10 11 11 11 12 11 12 11 12 8 11 12 11 11 15 15 15 14 13 12 11 10
7 6 6 7 7 6 3 5 8 8 9 10 10 11 10 10 10 9 10 11 11 10 11 11 12 11 12 11 11 11 11 10 11 10 12 12 14 12 14 14 12 12 11 11 10
5 5 6 6 7 4 6 8 10 10 9 10 10 10 12 11 11 11 11 11 10 10 11 11 12 11 11 11 11 11 11 10 10 10 7 9 13 13 12 11 10 11 11 10 10
4 4 5 6 5 5 8 10 10 11 11 10 11 12 12 11 11 10 11 11 10 11 11 10 9 10 11 12 10 11 11 10 8 7 7 11 13 12 11 13 12 12 11 10 10
3 4 4 4 4 7 8 9 11 11 11 11 11 12 12 11 10 11 11 11 11 12 12 11 9 10 9 10 9 10 10 10 10 10 10 11 12 14 13 13 13 12 11 11 10
1 3 3 3 6 6 7 9 10 10 10 10 11 10 11 12 11 10 11 11 11 12 10 11 8 7 10 10 9 9 10 11 10 12 12 13 12 14 14 13 13 13 11 10 10
2 2 1 2 3 6 7 8 8 9 9 10 10 10 10 10 10 11 11 11 12 11 10 8 7 8 8 10 9 10 9 10 11 11 12 12 12 15 13 12 12 12 11 11 10
1 1 2 3 4 6 5 6 8 7 10 9 9 10 10 10 9 9 9 9 10 10 9 9 7 8 8 9 10 10 10 9 10 11 12 12 13 13 13 12 13 13 11 12 11
Height
822 818 816 812 810 806 803 799 797 796 795 795 795 796 797 796 796 797 798 796 797 798 797 796 798 801 801 803 805 807 815 816 816 816 815 815 812 813 811 812 809 812 814 812 811
821 818 815 811 809 805 801 798 796 794 793 793 793 794 795 794 794 794 793 793 793 795 797 796 799 801 799 801 802 804 809 808 807 806 813 815 816 817 815 815 817 815 813 812 813
819 816 813 811 807 804 801 798 796 794 793 793 793 793 793 793 794 790 791 791 793 794 795 797 799 800 800 802 804 803 803 805 807 808 809 814 818 819 818 820 824 825 818 815 816
817 815 812 809 807 804 802 798 796 795 794 794 794 794 793 793 797 789 787 786 789 794 795 794 799 801 800 803 801 804 802 801 803 807 810 817 818 820 822 819 821 821 817 815 816
817 814 811 809 806 804 802 800 797 796 795 795 795 795 795 795 794 790 787 786 788 791 793 794 797 799 799 799 802 803 800 802 807 809 814 817 822 822 819 818 819 817 817 817 817
816 813 810 807 805 803 801 800 798 796 795 795 795 796 796 797 791 790 788 789 790 791 793 794 794 796 800 798 800 799 800 804 808 816 819 817 820 817 818 816 813 815 816 817 817
815 811 808 806 804 802 799 798 796 796 795 796 796 796 797 795 790 790 789 789 791 793 793 794 794 796 798 801 797 797 808 810 809 814 820 817 817 816 812 814 815 816 817 817 817
813 809 806 804 802 800 799 796 796 796 795 795 795 795 796 791 790 789 789 790 790 792 794 794 796 797 800 798 800 800 807 813 813 810 825 825 815 811 810 814 814 817 817 817 815
811 808 805 802 799 798 797 795 795 795 796 795 795 795 795 792 790 789 789 790 791 790 790 793 799 798 800 801 805 805 808 814 817 811 819 822 823 810 809 813 815 816 816 816 816
809 806 803 800 797 797 795 794 794 795 796 796 795 797 794 795 792 790 789 790 791 790 789 793 799 799 803 800 796 803 810 814 812 817 818 820 814 812 815 817 811 814 816 816 816
807 803 801 798 795 794 794 794 798 798 795 795 797 796 794 795 793 791 791 791 791 793 793 794 803 796 794 798 795 802 806 807 813 814 818 821 821 817 817 817 810 809 814 815 814
804 801 798 795 793 792 793 795 794 796 797 795 795 795 795 796 795 794 793 796 798 791 788 798 795 798 797 796 799 799 811 812 808 809 814 819 819 814 815 815 809 809 811 814 814
802 799 795 792 792 792 793 794 793 794 798 796 796 794 796 796 795 792 795 797 800 797 789 787 793 800 796 798 801 806 807 814 812 814 815 818 819 814 809 810 810 808 808 810 811
799 796 793 791 794 792 792 793 793 793 807 796 795 795 795 795 795 792 793 795 802 796 795 789 795 798 795 797 800 806 804 805 811 814 823 813 817 808 803 804 805 805 798 799 806
796 793 791 790 792 791 792 792 793 795 815 796 796 795 794 793 795 793 792 791 794 794 797 793 794 800 795 796 796 802 803 806 811 817 816 818 819 800 799 800 794 796 791 794 799
792 789 789 791 792 793 793 793 794 816 814 793 794 793 792 792 791 793 791 791 791 791 795 796 794 796 793 798 797 801 806 811 819 816 820 814 814 797 798 788 790 792 791 791 793
788 786 789 790 792 793 794 794 810 804 797 789 794 794 794 795 793 794 791 794 797 795 795 795 796 799 797 799 800 801 807 821 826 826 822 821 821 795 790 789 787 786 786 785 789
787 787 789 790 792 795 796 806 806 789 789 782 787 795 790 795 793 789 792 796 796 796 789 791 800 799 799 798 797 801 805 818 820 822 820 827 819 794 783 785 787 785 783 785 786
788 789 790 792 794 796 800 822 806 810 795 785 782 785 782 785 785 785 790 789 797 801 793 791 798 799 801 799 800 803 815 816 837 852 833 815 812 793 784 783 783 782 783 782 785
789 789 791 792 794 796 808 798 804 793 787 785 783 782 783 782 781 783 784 783 795 795 794 795 794 800 801 799 804 802 808 815 837 831 825 822 818 795 786 783 782 781 781 782 786
788 790 793 792 794 798 814 802 789 785 784 783 780 776 783 784 786 791 789 780 784 792 788 791 790 804 798 803 804 809 812 819 817 825 814 820 803 795 787 784 785 782 781 781 785
787 796 792 792 796 803 797 788 778 779 784 781 781 778 774 777 781 781 783 781 782 784 786 791 791 801 804 803 806 805 809 812 818 829 849 834 807 786 788 789 788 783 779 782 785
789 793 793 792 804 799 787 779 777 776 777 779 776 773 773 778 782 783 781 779 781 781 786 790 809 807 808 805 811 807 807 814 823 833 841 813 798 788 788 782 784 784 783 783 786
789 798 796 795 796 790 787 783 776 775 776 777 776 773 772 776 780 780 781 780 781 781 780 784 802 801 810 803 804 807 804 808 810 812 815 799 797 780 782 782 780 780 781 783 785
791 798 798 805 796 795 790 785 779 782 779 776 773 780 777 777 780 783 781 781 780 779 786 787 805 810 798 798 805 803 798 799 802 795 797 786 787 779 776 777 778 776 779 782 785
792 796 801 804 802 796 793 791 791 788 785 778 779 780 779 780 785 782 781 780 776 784 787 795 811 806 805 798 801 801 800 797 792 791 785 785 773 773 775 777 777 776 778 780 782
789 791 793 801 799 797 804 799 792 793 784 784 784 782 783 785 782 783 784 784 780 783 790 794 805 808 808 802 796 797 786 791 787 782 779 783 761 773 771 772 770 770 774 771 771
Wind_Speed
16 17 18 19 20 22 20 19 14 11 11 10 7 6 6 5 5 3 7 9 8 7 5 5 7 6 5 3 4 0 5 12 14 9 4 2 3 4 5 3 3 6 5 8 17
16 16 17 18 19 21 21 17 13 11 9 4 5 3 4 3 3 6 10 11 16 9 5 2 4 5 3 3 4 4 7 10 6 4 5 3 4 4 4 5 5 5 17 4 15
16 16 17 18 17 18 20 15 12 10 4 1 2 3 4 2 1 4 7 16 17 12 6 2 2 2 3 3 5 5 11 6 4 9 5 4 3 3 2 4 3 7 14 7 9
17 17 15 17 16 16 16 14 11 10 7 4 3 1 2 3 2 1 14 12 19 14 7 5 4 5 4 5 4 5 9 12 5 4 4 3 3 2 2 2 3 6 10 4 7
17 16 16 16 15 13 13 13 10 9 8 6 3 3 1 2 4 7 11 0 17 11 6 6 7 5 4 6 5 3 5 6 10 8 6 5 5 1 4 3 4 8 12 5 7
16 17 16 15 14 11 11 9 8 7 7 6 5 3 1 1 3 4 7 3 5 9 3 6 2 4 3 5 5 7 2 7 9 5 3 1 1 2 4 4 11 12 13 10 8
17 15 16 14 14 12 10 8 5 4 5 4 3 2 1 4 4 8 3 5 2 7 1 9 5 3 1 4 3 7 8 4 6 5 4 3 10 8 4 7 10 10 10 11 7
17 17 15 15 13 12 10 9 7 2 1 2 2 1 3 3 4 5 4 7 6 5 10 7 6 1 1 1 3 4 5 7 5 13 4 8 22 8 5 5 11 9 8 9 9
18 18 16 15 12 11 11 10 5 1 1 1 1 2 1 1 2 5 4 3 3 10 12 13 6 3 1 5 4 3 6 5 5 13 8 9 9 14 2 5 9 6 7 9 11
18 18 17 14 12 9 10 4 2 1 2 1 1 3 3 2 5 1 5 6 7 5 8 6 3 2 2 5 15 7 6 5 8 10 9 16 4 6 1 8 13 5 7 8 10
19 18 17 15 11 7 5 1 3 2 1 1 0 0 2 9 2 2 3 3 6 3 6 9 4 11 10 4 3 7 5 9 5 9 6 12 5 7 6 6 11 10 9 11 13
19 18 17 15 8 4 1 2 2 1 2 1 2 3 1 3 1 3 3 2 3 5 10 5 2 10 7 5 6 11 8 4 2 7 8 8 12 9 10 5 9 13 11 11 9
19 18 17 11 3 1 1 2 3 1 2 1 1 1 1 2 3 6 7 3 3 3 13 7 2 12 7 5 8 2 9 5 5 5 3 7 7 7 7 8 6 12 13 15 12
19 18 14 4 2 4 1 5 2 1 3 0 1 1 2 0 2 4 6 3 1 6 4 3 9 17 10 6 6 4 5 6 9 9 4 5 4 11 14 12 13 14 19 16 11
19 17 8 3 6 3 2 6 3 2 4 1 2 1 1 1 1 1 2 1 2 7 2 2 11 12 8 8 5 4 5 6 3 4 3 3 2 4 7 16 19 21 20 14 10
21 14 3 6 4 4 7 6 2 5 2 2 1 3 2 3 2 3 2 1 2 6 4 3 5 2 2 3 1 9 7 7 4 3 3 4 6 4 4 14 14 17 16 18 14
20 3 7 8 4 8 6 1 3 5 1 0 3 2 3 1 2 1 1 2 3 5 1 7 3 1 1 7 1 4 6 2 1 2 4 2 3 11 6 5 7 12 13 15 7
6 10 9 6 9 7 2 4 7 1 1 1 4 4 2 6 2 3 2 3 5 4 3 3 3 6 1 2 5 3 4 4 6 4 3 3 5 6 4 4 4 5 5 4 7
7 9 6 7 8 5 3 4 6 5 2 2 1 3 2 4 3 3 2 2 3 3 3 4 2 3 3 1 2 3 3 3 6 2 2 1 4 10 3 6 4 5 4 6 5
5 5 3 7 7 3 3 1 1 4 3 0 1 1 2 3 2 0 1 4 3 7 8 2 5 4 2 2 6 2 5 2 3 3 3 3 4 4 3 6 6 6 7 5 5
4 3 3 8 5 3 2 4 4 5 3 3 0 1 4 4 4 4 4 1 5 8 4 2 2 2 3 1 5 1 2 4 3 2 3 1 4 5 5 4 7 9 5 6 7
3 2 4 9 1 0 1 4 4 2 2 2 2 3 1 3 2 2 5 4 6 6 6 4 3 3 2 1 2 1 3 3 3 3 1 2 6 4 5 5 4 9 3 3 6
3 2 2 2 1 2 3 2 2 2 2 3 1 2 2 3 4 2 3 3 3 2 6 6 2 4 2 0 2 3 4 3 4 3 6 4 4 3 4 2 1 4 3 6 7
3 2 2 2 1 1 1 2 0 0 1 1 2 2 2 4 5 3 2 2 4 1 4 4 3 5 6 5 4 5 6 7 5 4 3 9 4 10 6 4 5 3 4 6 7
3 1 1 1 1 2 0 2 2 4 4 4 2 3 1 2 3 2 2 3 3 3 3 2 2 3 3 3 4 5 6 12 15 12 12 4 15 18 13 9 5 6 4 6 8
3 3 1 2 1 2 3 3 4 4 4 3 3 4 3 4 2 3 2 1 3 2 3 2 2 2 2 3 4 3 7 9 15 15 17 17 27 11 7 4 5 6 6 9 10
3 2 2 3 2 2 2 2 4 4 1 4 2 2 5 3 1 3 2 1 2 6 3 3 4 2 3 2 1 5 10 13 7 7 13 15 25 4 8 8 13 11 9 13 14
Wind_Direction
347 348 351 351 348 344 341 340 324 312 304 299 259 235 255 253 282 254 223 224 249 266 333 330 191 201 138 143 150 208 168 204 201 172 154 2 140 355 313 346 35 26 347 322 155
346 345 351 350 350 352 351 344 345 332 316 283 216 218 220 251 275 238 244 237 243 251 276 30 169 186 155 145 197 174 193 211 179 143 130 92 89 341 28 37 23 350 357 61 153
344 347 348 353 350 353 360 356 353 357 13 299 200 181 198 228 33 240 327 231 210 245 233 153 179 178 161 139 188 187 201 156 131 108 119 103 60 5 4 65 92 354 324 306 175
344 347 346 349 354 352 358 8 15 19 34 47 22 45 173 155 179 243 344 219 199 214 174 135 168 166 144 175 197 167 216 212 177 111 90 95 113 60 13 129 333 330 324 262 200
345 345 346 342 352 353 355 2 16 29 38 43 57 109 162 43 261 342 0 153 195 188 179 154 181 151 172 185 141 177 160 176 105 96 84 126 80 278 249 232 321 357 24 266 237
345 344 341 336 341 343 353 354 12 23 43 51 77 141 73 21 331 334 8 64 87 173 211 163 183 153 166 189 171 171 126 167 140 102 91 93 311 21 111 360 351 7 359 351 251
342 343 341 335 335 338 334 342 337 20 45 57 61 76 37 238 342 314 5 162 333 183 262 197 226 147 312 143 199 139 139 83 185 135 25 11 276 245 246 1 327 344 346 341 317
337 337 341 335 327 325 328 319 315 307 77 65 45 27 236 320 357 15 37 138 238 284 214 207 203 332 191 108 93 119 102 153 167 163 162 101 249 259 359 12 305 321 326 327 323
335 335 337 334 325 318 321 314 276 243 165 185 11 80 309 18 7 5 31 101 123 252 202 165 167 189 203 135 131 225 169 137 147 179 151 153 258 263 149 288 281 299 315 317 309
334 331 332 331 322 316 324 349 151 215 202 171 88 88 344 318 315 56 60 53 69 319 170 147 92 195 160 179 188 156 137 111 169 181 166 194 199 8 81 259 247 268 313 310 297
331 330 329 327 318 305 317 141 25 344 44 207 133 300 322 328 325 173 81 47 40 354 162 176 132 202 171 124 141 114 123 167 134 174 163 195 215 249 212 247 275 249 288 293 276
330 330 328 325 311 289 258 143 194 171 351 261 261 263 344 352 346 114 32 78 68 180 151 154 204 193 144 107 126 135 119 139 93 166 180 182 233 217 195 232 234 242 268 273 256
330 330 328 327 281 214 147 215 131 91 102 45 335 236 73 17 309 158 177 112 80 186 158 185 129 167 178 134 119 86 157 163 146 138 205 164 249 223 201 187 244 259 255 264 256
330 329 329 321 143 140 170 155 119 51 67 232 145 299 122 76 303 109 136 164 177 109 86 181 131 165 160 163 140 144 180 151 140 135 199 189 260 220 210 215 205 231 251 248 221
328 327 325 196 140 154 162 159 125 75 46 96 102 293 240 104 220 358 165 129 87 103 95 111 135 178 141 172 163 164 140 134 116 111 164 165 259 254 200 219 211 221 234 240 240
328 322 210 161 157 121 137 135 87 49 333 107 142 159 167 27 33 332 358 70 70 66 41 9 103 59 177 88 19 143 96 60 55 61 271 197 202 260 204 226 223 222 228 252 226
329 314 164 143 156 145 143 99 49 75 291 116 123 243 140 130 110 298 107 159 130 125 159 110 99 359 302 96 29 101 91 90 98 204 219 25 199 262 275 237 212 206 219 231 211
353 125 130 116 133 150 131 37 65 268 112 317 129 139 169 167 184 177 179 139 79 66 106 124 147 178 333 202 143 120 141 151 174 197 221 125 216 249 234 291 265 272 234 230 200
135 125 117 143 149 149 72 43 186 200 219 113 175 227 145 165 149 202 243 89 137 174 131 138 104 137 80 120 45 186 79 151 108 30 23 239 285 281 251 286 265 267 260 255 216
173 133 77 158 151 101 78 290 160 187 185 202 205 226 103 125 87 59 239 133 151 216 235 165 104 26 132 133 34 93 153 86 12 134 236 308 279 241 332 291 310 319 272 254 180
182 87 137 141 146 78 154 225 242 207 194 183 118 15 138 158 136 171 203 309 158 173 147 126 83 53 152 123 164 115 109 51 114 131 177 275 261 214 248 311 308 299 278 239 180
135 77 161 148 176 198 234 202 209 180 166 237 228 179 134 157 119 123 174 253 152 156 130 187 87 105 96 349 65 319 185 148 141 221 81 129 263 219 261 294 314 296 285 203 164
108 129 126 154 128 276 289 259 217 187 210 176 268 353 68 127 122 143 128 334 168 145 158 173 130 117 49 171 28 205 186 128 109 90 196 173 249 182 276 4 314 254 236 162 150
101 93 352 61 317 194 350 339 19 164 2 345 333 44 44 22 16 126 108 70 146 193 126 105 139 156 181 198 135 189 187 174 165 199 176 230 282 283 244 291 306 257 198 183 178
31 167 203 198 335 13 334 330 349 18 357 28 79 55 96 61 19 66 113 120 63 106 50 83 121 123 201 175 138 181 200 200 209 218 222 223 235 243 259 287 249 241 211 187 200
126 134 24 105 315 354 346 10 38 345 2 354 64 354 19 100 26 257 145 194 175 115 118 19 161 134 309 159 170 237 231 226 225 234 246 252 263 252 249 298 286 253 206 208 201
125 90 111 344 53 113 353 2 45 335 92 77 319 32 52 354 269 256 289 25 155 147 121 94 130 91 275 357 30 291 226 206 214 220 226 238 247 183 279 254 246 249 214 214 205